TimeCST,TemperatureF,Dew PointF,Humidity,Sea Level PressureIn,VisibilityMPH,Wind Direction,Wind SpeedMPH,Gust SpeedMPH,PrecipitationIn,Events,Conditions,WindDirDegrees,DateUTC
12:53 AM,39.0,27.0,62,30.40,10.0,SSE,9.2,-,N/A,,Clear,160,2013-01-18 06:53:00
1:53 AM,39.0,27.0,62,30.38,10.0,South,10.4,-,N/A,,Clear,170,2013-01-18 07:53:00
2:53 AM,36.0,27.0,70,30.38,10.0,SSE,6.9,-,N/A,,Clear,150,2013-01-18 08:53:00
3:53 AM,34.0,26.1,73,30.36,10.0,SSE,4.6,-,N/A,,Clear,160,2013-01-18 09:53:00
4:53 AM,35.1,26.1,70,30.35,10.0,SSE,8.1,-,N/A,,Clear,150,2013-01-18 10:53:00
5:53 AM,37.9,26.1,62,30.33,10.0,South,12.7,-,N/A,,Clear,180,2013-01-18 11:53:00
6:53 AM,37.9,26.1,62,30.34,10.0,South,11.5,-,N/A,,Clear,180,2013-01-18 12:53:00
7:53 AM,37.9,26.1,62,30.34,10.0,SSW,9.2,-,N/A,,Clear,200,2013-01-18 13:53:00
8:53 AM,45.0,26.1,48,30.34,10.0,South,10.4,-,N/A,,Clear,180,2013-01-18 14:53:00
9:53 AM,50.0,28.0,43,30.34,10.0,SSE,10.4,-,N/A,,Clear,160,2013-01-18 15:53:00
10:53 AM,55.9,25.0,30,30.33,10.0,South,10.4,-,N/A,,Clear,170,2013-01-18 16:53:00
11:53 AM,60.1,25.0,26,30.30,10.0,West,10.4,16.1,N/A,,Clear,280,2013-01-18 17:53:00
12:53 PM,59.0,28.0,31,30.25,10.0,NNW,3.5,-,N/A,,Clear,330,2013-01-18 18:53:00
1:53 PM,61.0,23.0,23,30.20,10.0,Calm,Calm,-,N/A,,Clear,0,2013-01-18 19:53:00
2:53 PM,64.0,21.0,19,30.19,10.0,SW,9.2,-,N/A,,Clear,230,2013-01-18 20:53:00
3:53 PM,64.0,21.0,19,30.17,10.0,SW,10.4,18.4,N/A,,Clear,220,2013-01-18 21:53:00
4:53 PM,62.1,21.9,21,30.17,10.0,SSW,6.9,-,N/A,,Clear,200,2013-01-18 22:53:00
5:53 PM,59.0,25.0,27,30.17,10.0,South,9.2,-,N/A,,Clear,190,2013-01-18 23:53:00
6:53 PM,53.1,28.0,38,30.18,10.0,South,10.4,-,N/A,,Clear,170,2013-01-19 00:53:00
7:53 PM,51.1,26.1,38,30.19,10.0,South,16.1,-,N/A,,Clear,170,2013-01-19 01:53:00
8:53 PM,48.9,28.0,44,30.18,10.0,South,16.1,-,N/A,,Clear,170,2013-01-19 02:53:00
9:53 PM,46.0,28.9,51,30.17,10.0,SSE,12.7,-,N/A,,Clear,160,2013-01-19 03:53:00
10:53 PM,45.0,28.9,53,30.15,10.0,South,11.5,-,N/A,,Clear,170,2013-01-19 04:53:00
11:53 PM,43.0,28.0,56,30.13,10.0,SSW,11.5,-,N/A,,Clear,210,2013-01-19 05:53:00